Regional Weather Roundup
Issued by NWS Sterling, VA

Current Version | Previous Version | Text Only | Print | Product List | Glossary On
Versions: 1 2 3 4 5 6 7 8 9 10 11 12 13 14 15 16 17 18 19 20 21 22 23 24 25 26 27 28
000
ASUS41 KLWX 010910
RWRLWX

REGIONAL WEATHER ROUNDUP
NATIONAL WEATHER SERVICE BALTIMORE MD/WASHINGTON DC
500 AM EDT SAT NOV 01 2014

Note: "FAIR" indicates few or no clouds below 12,000 feet
with no significant weather and/or obstructions to visibility.
 TC=TEMPERATURE CELSIUS

 * =Non NWS site. Station does not report precipitation (e.g. rain,
    snow, etc.), thunder, or fog.

DCZ001-MDZ009-015-VAZ040>042-051-053>054-011000-
WASHINGTON METRO

CITY           SKY/WX    TMP DP  RH WIND       PRES   REMARKS
WASHINGTON NAT CLOUDY    51  38  60 N9        29.77S
DULLES         CLOUDY    45  36  70 N12       29.78F
ANDREWS AFB    CLOUDY    48  40  74 N15       29.74F
FT BELVOIR     PTCLDY    45  37  76 NW7       29.76F
QUANTICO       CLOUDY    47  36  65 N14G23    29.77F
COLLEGE PARK*  CLOUDY    48  41  76 N10       29.76S
LEESBURG*      CLOUDY    45  37  76 NE3       29.80S
MANASSAS*      PTCLDY    45  37  76 N8        29.77F
GAITHERSBURG*  MOCLDY    45  37  76 N6        29.81S

$$

MDZ006>007-011-014-011000-
BALTIMORE METRO

CITY           SKY/WX    TMP DP  RH WIND       PRES   REMARKS
BWI AIRPORT    CLOUDY    48  40  73 N9        29.76S
MD SCIENCE CTR   N/A     49  40  71 MISG      29.77S
MARTIN STATE   CLOUDY    50  43  76 NW9       29.78S
ANNAPOLIS      CLOUDY    51  43  74 N10       29.74F
FORT MEADE*    CLOUDY    46  41  81 N5        29.78S

$$

MDZ012-015-019>023-011000-
MARYLAND EASTERN SHORE

CITY           SKY/WX    TMP DP  RH WIND       PRES   REMARKS
OCEAN CITY     CLOUDY    54  51  90 N16       29.64F
SALISBURY      CLOUDY    53  47  79 N10       29.66F
BAY BRIDGE AP*   N/A     50  43  76 N14G23    29.74S
CAMBRIDGE*     CLOUDY    52  43  71 N14       29.70S
EASTON*        CLOUDY    52  46  80 N12G20    29.75S

$$

MDZ017>025-011000-
SOUTHERN MARYLAND

CITY           SKY/WX    TMP DP  RH WIND       PRES   REMARKS
PATUXENT RIVER CLOUDY    50  41  71 NW12      29.72S
ST INIGOES     CLOUDY    50  40  68 VRB7      29.70S
LEONARDTOWN*   CLOUDY    46  37  71 N3        29.73S

$$

MDZ003>005-011000-
NORTH CENTRAL MARYLAND

CITY           SKY/WX    TMP DP  RH WIND       PRES   REMARKS
FREDERICK*     CLOUDY    50  37  62 N6        29.82S
HAGERSTOWN APT CLOUDY    46  36  68 N8        29.80F
WESTMINSTER*   CLOUDY    45  39  81 N8        29.78S

$$

MDZ501>502-011000-
WESTERN MARYLAND

CITY           SKY/WX    TMP DP  RH WIND       PRES   REMARKS
OAKLAND*       CLOUDY    34 N/A N/A N3        29.80R FOG
CUMBERLAND*    MOCLDY    41  39  93 CALM      29.88S

$$

VAZ025>031-011000-
SHENANDOAH VALLEY

CITY           SKY/WX    TMP DP  RH WIND       PRES   REMARKS
WINCHESTER*    PTCLDY    43  34  70 NW6       29.80S
FRONT ROYAL*   CLOUDY    41  37  87 CALM      29.79S
LURAY*         FAIR      39  39 100 CALM      29.80R
NEW MARKET*    FAIR      37  37  99 CALM      29.80S
STAUNTON*      CLOUDY    43  38  84 N8        29.81S
WAYNESBORO*    CLOUDY    40  39  94 N7        29.78R

$$

WVZ021-048>050-054>055-011000-
EASTERN WEST VIRGINIA PANHANDLE

CITY           SKY/WX    TMP DP  RH WIND       PRES   REMARKS
MARTINSBURG    CLOUDY    47  34  60 N10       29.81S
PETERSBURG*    CLOUDY    41  38  87 NW3       29.85R

$$

VAZ036>039-050-011000-
CENTRAL FOOTHILLS

CITY           SKY/WX    TMP DP  RH WIND       PRES   REMARKS
CHARLOTTESVILL PTCLDY    43  37  79 VRB5      29.78R
CULPEPER*      MOCLDY    45  37  76 CALM      29.78S
ORANGE*        PTCLDY    45  36  70 NW7       29.78S
GORDONSVILLE*  CLOUDY    45  35  67 N5        29.77R
WARRENTON*     MOCLDY    45  40  82 N6        29.77S

$$

VAZ055>057-011000-
NORTH AND CENTRAL PIEDMONT

CITY           SKY/WX    TMP DP  RH WIND       PRES   REMARKS
FREDERICKSBRG* CLEAR     45  37  74 NW5       29.75S
STAFFORD*      PTCLDY    42  34  74 NW10      29.80S

$$

NCZ024-NYZ072-PAZ021-071-VAZ022-071-011000-
OTHER REGIONAL OBSERVATIONS

CITY           SKY/WX    TMP DP  RH WIND       PRES   REMARKS
NEW YORK CITY  LGT RAIN  45  40  82 NE9G18    29.84S
PHILADELPHIA   LGT RAIN  49  43  80 NE21G26   29.76F
PITTSBURGH     CLOUDY    41  39  93 N8        29.89S
ROANOKE        LGT RAIN  42  40  92 CALM      29.80F
RICHMOND       MOCLDY    43  37  79 N10       29.73F
RALEIGH        RAIN      46  43  89 N6        29.74F FOG

$$

ANZ530>537-011000-
MARINE OBSERVATIONS

STATION/POSITION TIME  TEMP    WIND        PRES
                       AIR SEA DIR/SP/G
                 (UTC) (F)     (DEG/KT/KT) (MB)
THOMAS PT LIGHT  0900   50 60   10/ 19/ 21 1007.7F
BALT KEY BRIDGE  0900   49     340/ 10/ 12 1007.5S
COVE POINT       0900   52      20/ 20/ 23 1006.0R
LEWISETTA        0900   51 59  350/  9/ 12 1005.8S
SOLOMONS ISLAND  0900      61                N/A
PINEY POINT      0900           30/ 13/ 18   N/A

$$




USA.gov is the U.S. government's official web portal to all federal, state and local government web resources and services.